This is the latest recevied weather packets stored in our database for station/object KE6JJJ-1. If no packets are shown the sender has not sent any weather packets the latest 10 day(s).
| Time | Temp. | Humidity | Pressure | Rain* | Wind** | Luminosity | Snow |
|---|---|---|---|---|---|---|---|
| 1777826103 | 15° C | 77% | 1013.1 hPa | 0 mm | - | 251 W/m² | - |
| 1777824303 | 14.44° C | 78% | 1012.9 hPa | 0 mm | - | 283 W/m² | - |
| 1777822503 | 13.89° C | 81% | 1012.8 hPa | 0 mm | - | 165 W/m² | - |
| 1777820703 | 13.33° C | 83% | 1012.5 hPa | 0 mm | - | 132 W/m² | - |
| 1777818903 | 13.33° C | 83% | 1012.1 hPa | 0 mm | - | 18 W/m² | - |
| 1777817103 | 13.33° C | 83% | 1011.8 hPa | 0 mm | - | 21 W/m² | - |
| 1777815310 | 12.78° C | 83% | 1011.5 hPa | 0 mm | - | 11 W/m² | - |
| 1777813504 | 12.78° C | 83% | 1010.9 hPa | 0 mm | - | 0 W/m² | - |
| 1777811711 | 12.78° C | 83% | 1010.9 hPa | 0 mm | - | 0 W/m² | - |
| 1777809904 | 12.78° C | 83% | 1011.1 hPa | 0 mm | - | 0 W/m² | - |
| 1777808103 | 12.78° C | 83% | 1011.2 hPa | 0 mm | - | 0 W/m² | - |
| 1777806303 | 12.78° C | 83% | 1011.2 hPa | 0 mm | - | 0 W/m² | - |
| 1777804503 | 12.78° C | 84% | 1011.2 hPa | 0 mm | - | 0 W/m² | - |
| 1777802704 | 12.78° C | 83% | 1011 hPa | 0 mm | - | 0 W/m² | - |
| 1777800903 | 12.78° C | 83% | 1011.2 hPa | 0 mm | - | 0 W/m² | - |
| 1777799103 | 12.78° C | 83% | 1011.4 hPa | 0 mm | - | 0 W/m² | - |
| 1777797303 | 12.78° C | 82% | 1011.6 hPa | 0 mm | - | 0 W/m² | - |
| 1777795632 | 13.33° C | 82% | 1012 hPa | 0 mm | - | 0 W/m² | - |
| 1777795505 | 13.33° C | 82% | 1012 hPa | 0 mm | - | 0 W/m² | - |
| 1777793703 | 12.78° C | 82% | 1011.9 hPa | 0 mm | - | 0 W/m² | - |
| 1777791903 | 13.33° C | 82% | 1012 hPa | 0 mm | - | 0 W/m² | - |
| 1777790103 | 13.33° C | 82% | 1011.9 hPa | 0 mm | - | 0 W/m² | - |
| 1777788303 | 13.33° C | 82% | 1012.1 hPa | 0 mm | - | 0 W/m² | - |
| 1777786503 | 13.33° C | 82% | 1012.5 hPa | 0 mm | - | 0 W/m² | - |
| 1777784703 | 13.33° C | 82% | 1012.4 hPa | 0 mm | - | 0 W/m² | - |
* Rain latest hour (hover to see other rain measurements)
** Current wind speed in m/s (hover to see current wind gust speed)